Location: Unspecified
(17.6330°N, 0.0000°E)
Time: 04:19:45
(UTC+00:00)

S-56A Canister/Altair - Pass Details

Date: 03 July 2019
Orbit: 633 x 2499 km, 38.9° (Epoch: 21 August)

Event Time Altitude Azimuth Distance (km) Brightness Sun altitude
Rises 13:33:37 0° 279° (W) 6,111 12.4 68.4°
Reaches altitude 10° 13:38:51 10° 290° (WNW) 4,956 12.2 67.2°
Maximum altitude 13:49:43 27° 342° (NNW) 3,240 11.4 64.7°
Drops below altitude 10° 13:58:11 10° 37° (NE) 3,798 11.1 62.8°
Sets 14:01:34 0° 50° (NE) 4,494 11.3 62.0°
